Weather History for Luxor, Egypt

Change the Weather History Date:

Monday, September 30, 2013

  Actual Average Record
Temperature  
Mean Temperature 81 °F -  
Max Temperature 95 °F 91 °F 109 °F (2002)
Min Temperature 67 °F 65 °F 66 °F (2000)
Cooling Degree Days 16    
Growing Degree Days 31 (Base 50)    
Moisture  
Dew Point 55 °F    
Average Humidity 40    
Maximum Humidity 60    
Minimum Humidity 25    
Precipitation  
Precipitation 0.00 in 0.00 in - ()
Sea Level Pressure  
Sea Level Pressure 29.82 in    
Wind  
Wind Speed 2 mph ()    
Max Wind Speed 5 mph    
Max Gust Speed -    
Visibility 6.0 miles    
Events      
Averages and records for this station are not official NWS values.
T = Trace of Precipitation, MM = Missing Value Source: Averaged Metar Reports

Daily Weather History Graph

Daily Weather History Graph

Search for Another Location

Airport:

Trip Planner

Search our weather history database for the weather conditions in past years. The results will help you decide how hot, cold, wet, or windy it might be!

Date:

Astronomy

Sep. 30, 2013 Rise Set
Actual Time 5:40 AM EET 5:36 PM EET
Civil Twilight 5:18 AM EET 5:59 PM EET
Nautical Twilight 4:51 AM EET 6:26 PM EET
Astronomical Twilight 4:24 AM EET 6:53 PM EET
Moon 1:22 AM EET 2:34 PM EET
Length of Visible Light 12h 41m
Length of Day
11h 55m
Waning Crescent, 21% of the Moon is Illuminated
Sep 30
Waning Crescent
Oct 5
New
Oct 12
First Quarter
Oct 19
Full
Oct 27
Last Quarter

Hourly Weather History & Observations

Time (EET) Temp. Heat Index Dew Point Humidity Pressure Visibility Wind Dir Wind Speed Gust Speed Precip Events Conditions
12:00 AM 77.0 °F - 53.6 °F 44% 29.83 in - SE 3.5 mph - N/A   Clear
1:00 AM 75.2 °F - 53.6 °F 47% 29.83 in - SSE 2.3 mph - N/A   Clear
2:00 AM 74 °F - 54 °F 39% 29.82 in 6 mi SSE 4.6 mph - -  
2:00 AM 73.4 °F - 53.6 °F 50% 29.83 in - SSE 4.6 mph - N/A   Clear
3:00 AM 73.4 °F - 55.4 °F 53% 29.83 in - SSE 3.5 mph - N/A   Clear
4:00 AM 71.6 °F - 55.4 °F 57% 29.83 in - Calm Calm - N/A   Clear
5:00 AM 69.8 °F - 55.4 °F 60% 29.83 in - SSE 2.3 mph - N/A   Clear
6:00 AM 68.0 °F - 53.6 °F 60% 29.86 in - Calm Calm - N/A   Clear
7:00 AM 73.4 °F - 57.2 °F 57% 29.86 in - Calm Calm - N/A   Clear
8:00 AM 78 °F - 56 °F 36% 29.86 in 6 mi Calm Calm - -  
8:00 AM 77.0 °F - 59.0 °F 54% 29.86 in - Calm Calm - N/A   Clear
9:00 AM 82.4 °F 82.0 °F 57.2 °F 42% 29.86 in - Calm Calm - N/A   Clear
10:00 AM 86.0 °F 84.9 °F 57.2 °F 37% 29.86 in - WNW 2.3 mph - N/A   Clear
11:00 AM 89.6 °F 88.1 °F 57.2 °F 33% 29.83 in - West 2.3 mph - N/A   Clear
12:00 PM 91.4 °F 89.4 °F 55.4 °F 29% 29.83 in - NW 2.3 mph - N/A   Clear
1:00 PM 91.4 °F 89.1 °F 53.6 °F 28% 29.80 in - NNE 2.3 mph - N/A   Clear
2:00 PM 95.0 °F 92.7 °F 53.6 °F 25% 29.77 in - Calm Calm - N/A   Clear
3:00 PM 95.0 °F 92.7 °F 53.6 °F 25% 29.77 in - West 2.3 mph - N/A   Clear
4:00 PM 95.0 °F 92.7 °F 53.6 °F 25% 29.77 in - Calm Calm - N/A   Clear
5:00 PM 93.2 °F 90.8 °F 53.6 °F 26% 29.77 in - Calm Calm - N/A   Clear
6:00 PM 87.8 °F - 50.0 °F 27% 29.77 in - SW 2.3 mph - N/A   Clear
7:00 PM 84.2 °F 82.8 °F 53.6 °F 35% 29.77 in - West 2.3 mph - N/A   Clear
8:00 PM 83 °F - 54 °F 26% 29.80 in 6 mi WSW 4.6 mph - -  
8:00 PM 82.4 °F 81.4 °F 53.6 °F 37% 29.80 in - WSW 4.6 mph - N/A   Clear
9:00 PM 80.6 °F 80.3 °F 53.6 °F 39% 29.80 in - SW 2.3 mph - N/A   Clear
10:00 PM 80.6 °F 80.3 °F 53.6 °F 39% 29.83 in - SSW 3.5 mph - N/A   Clear
11:00 PM 77.0 °F - 53.6 °F 44% 29.83 in - Calm Calm - N/A   Clear